User: anonymous   Login
Location: Unspecified
(0.0000°N, 0.0000°E)
Time: 02:56:54
(UTC+00:00)
Language:

STARLINK-31039 - Orbit

View from above orbital plane
View from above orbital plane
View from above satellite
View from above satellite

Ground track
Ground track

The orbit is defined by the following mean orbital elements,

1 58784U          26145.07304134 +.00000000 +00000-0 +32911-4 0 00005
2 58784  53.1603  18.9622 0001028  73.6855 286.4258 15.30198550    07
Epoch (UTC): 25 May 2026 01:45:10
Eccentricity: 0.0001028
inclination: 53.1603°
perigee height: 475 km
apogee height: 476 km
right ascension of ascending node: 18.9622°
argument of perigee: 73.6855°
revolutions per day: 15.30198550
mean anomaly at epoch: 286.4258°

The dashed part of the orbit path shows where the satellite is in the earth's shadow,  

DLR